WO0TEN Weather Reports


Display with metric or nautical units.
time (UTC)temp
F
wind
direction
speed
MPH
gust
MPH
rain 1hr
in
rain 24hr
in
rain mn
in
humidity
%
barometer
mb
20260505153108 73 270 1.0 0.0 0.00 0.00 0.29 8
20260505152110 73 270 2.0 0.0 0.00 0.00 0.29 8
20260505151108 73 45 2.0 0.0 0.00 0.00 0.29 9
20260505150107 72 270 2.0 0.0 0.00 0.00 0.29 9
20260505140107 71 0 2.0 0.0 0.00 0.00 0.29 9
20260505130107 70 315 2.0 0.0 0.00 0.00 0.29 9
20260505124108 70 293 0.0 0.0 0.00 0.00 0.29 9
20260505123107 70 0 1.0 0.0 0.00 0.00 0.29 9
20260505122107 70 293 1.0 0.0 0.00 0.00 0.29 9
20260505121107 70 270 1.0 0.0 0.00 0.00 0.29 9
20260505120107 70 270 0.0 0.0 0.00 0.00 0.29 9
20260505115107 70 293 1.0 0.0 0.00 0.00 0.29 9
20260505114108 70 293 2.0 0.0 0.00 0.00 0.29 9
20260505113107 70 68 2.0 0.0 0.00 0.00 0.29 9
20260505112106 70 203 2.0 0.0 0.00 0.00 0.29 9
20260505111107 70 293 1.0 0.0 0.00 0.00 0.29 9
20260505110108 70 315 4.0 0.0 0.00 0.00 0.29 9
20260505102107 70 338 4.0 0.0 0.00 0.00 0.29 9
20260505101107 70 270 2.0 0.0 0.00 0.00 0.29 9
20260505100108 70 270 0.0 0.0 0.00 0.00 0.29 9
20260505095107 70 270 2.0 0.0 0.00 0.00 0.29 9
20260505094107 70 270 1.0 0.0 0.00 0.00 0.29 9
20260505093108 70 338 2.0 0.0 0.00 0.00 0.29 9
20260505092107 70 270 2.0 0.0 0.00 0.00 0.29 9
20260505091107 70 270 2.0 0.0 0.00 0.00 0.29 9
20260505090109 70 270 0.0 0.0 0.00 0.00 0.29 9
20260505085107 70 270 3.0 0.0 0.00 0.00 0.29 9
20260505084107 70 293 2.0 0.0 0.00 0.00 0.29 9
20260505083107 70 315 2.0 0.0 0.00 0.00 0.29 8
20260505082106 70 293 4.0 0.0 0.00 0.00 0.29 8
20260505081107 70 315 2.0 0.0 0.00 0.00 0.29 8
20260505080107 70 23 3.0 0.0 0.00 0.00 0.29 8
20260505075107 71 225 2.0 0.0 0.00 0.00 0.29 8
20260505074108 71 270 2.0 0.0 0.00 0.00 0.29 8
20260505073107 71 270 2.0 0.0 0.00 0.00 0.29 8
20260505072107 71 270 2.0 0.0 0.00 0.00 0.29 8
20260505071107 71 293 3.0 0.0 0.00 0.00 0.29 8
20260505070107 71 338 2.0 0.0 0.00 0.00 0.29 8
20260505065107 71 248 4.0 0.0 0.00 0.00 0.29 8
20260505064107 71 270 1.0 0.0 0.00 0.00 0.29 8
20260505063107 71 90 2.0 0.0 0.00 0.00 0.29 8
20260505062107 71 45 2.0 0.0 0.00 0.00 0.29 8
20260505061107 71 315 3.0 0.0 0.00 0.00 0.29 8
20260505060107 71 338 4.0 0.0 0.00 0.00 0.29 8
20260505055107 71 293 2.0 0.0 0.00 0.00 0.29 8
20260505054107 71 225 1.0 0.0 0.00 0.00 0.29 8
20260505053107 71 293 2.0 0.0 0.00 0.00 0.29 8
20260505052107 71 180 0.0 0.0 0.00 0.00 0.29 8
20260505051107 71 90 1.0 0.0 0.00 0.00 0.29 8
20260505050108 72 270 2.0 0.0 0.00 0.00 0.29 8
20260505041107 73 270 2.0 0.0 0.00 0.00 0.29 8
20260505040107 73 293 2.0 0.0 0.00 0.00 0.29 8
20260505035107 73 293 2.0 0.0 0.00 0.00 0.29 8
20260505034108 73 270 2.0 0.0 0.00 0.00 0.29 8
20260505033107 74 338 1.0 0.0 0.00 0.00 0.29 8
20260505032108 74 225 2.0 0.0 0.00 0.00 0.29 8
20260505031107 74 270 2.0 0.0 0.00 0.00 0.29 8
20260505030107 74 270 2.0 0.0 0.00 0.00 0.29 7
20260505025107 75 248 3.0 0.0 0.00 0.00 0.29 7
20260505024107 75 293 2.0 0.0 0.00 0.00 0.29 7
20260505023108 75 293 2.0 0.0 0.00 0.00 0.29 7
20260505022108 75 270 2.0 0.0 0.00 0.00 0.29 7
20260505021107 75 248 1.0 0.0 0.00 0.00 0.29 7
20260505020107 75 225 1.0 0.0 0.00 0.00 0.29 7
20260505015107 75 248 1.0 0.0 0.00 0.00 0.29 7
20260505014108 76 270 2.0 0.0 0.00 0.00 0.29 7
20260505013107 76 293 0.0 0.0 0.00 0.00 0.29 7
20260505012108 76 293 3.0 0.0 0.00 0.00 0.29 7
20260505011108 77 315 4.0 0.0 0.00 0.00 0.29 6
20260505010107 77 270 2.0 0.0 0.00 0.00 0.29 6
20260505005108 78 248 1.0 0.0 0.00 0.00 0.29 6
20260505004107 78 23 2.0 0.0 0.00 0.00 0.29 6
20260505003107 78 338 2.0 0.0 0.00 0.00 0.29 6
20260505002107 78 0 2.0 0.0 0.00 0.00 0.29 6
20260505001107 78 293 1.0 0.0 0.00 0.00 0.29 6
20260505000107 79 338 2.0 0.0 0.00 0.00 0.29 6
20260504235108 80 45 2.0 0.0 0.00 0.00 0.29 6
20260504234107 80 315 3.0 0.0 0.00 0.00 0.29 6
20260504233107 80 270 4.0 0.0 0.00 0.00 0.29 6
20260504232108 81 113 2.0 0.0 0.00 0.00 0.29 6
20260504231107 81 293 4.0 0.0 0.00 0.00 0.29 6
20260504230107 81 248 3.0 0.0 0.00 0.00 0.29 6
20260504225107 82 293 2.0 0.0 0.00 0.00 0.29 6
20260504224107 82 270 3.0 0.0 0.00 0.00 0.29 6
20260504223108 82 203 5.0 0.0 0.00 0.00 0.29 6
20260504222107 83 293 2.0 0.0 0.00 0.00 0.29 6
20260504221107 83 248 2.0 0.0 0.00 0.00 0.29 6
20260504220107 83 270 2.0 0.0 0.00 0.00 0.29 6
20260504215107 83 293 2.0 0.0 0.00 0.00 0.29 6
20260504214107 84 225 2.0 0.0 0.00 0.00 0.29 6
20260504213107 84 293 1.0 0.0 0.00 0.00 0.29 6
20260504212107 83 270 3.0 0.0 0.00 0.00 0.29 5
20260504211107 84 293 2.0 0.0 0.00 0.00 0.29 5
20260504210107 84 90 2.0 0.0 0.00 0.00 0.29 5
20260504205107 84 270 3.0 0.0 0.00 0.00 0.29 5
20260504204108 84 23 2.0 0.0 0.00 0.00 0.29 5
20260504203107 84 315 2.0 0.0 0.00 0.00 0.29 5
20260504202107 84 315 2.0 0.0 0.00 0.00 0.29 5
20260504201107 84 270 3.0 0.0 0.00 0.00 0.29 5
20260504200108 83 248 1.0 0.0 0.00 0.00 0.29 6
20260504195108 82 270 3.0 0.0 0.00 0.00 0.29 5
20260504194107 83 248 5.0 0.0 0.00 0.00 0.29 5
20260504193106 84 270 4.0 0.0 0.00 0.00 0.29 6
20260504192107 83 315 3.0 0.0 0.00 0.00 0.29 5
20260504191107 82 315 2.0 0.0 0.00 0.00 0.29 6
20260504190106 81 0 3.0 0.0 0.00 0.00 0.29 6
20260504185107 80 315 3.0 0.0 0.00 0.00 0.29 6
20260504184106 80 203 2.0 0.0 0.00 0.00 0.29 6
20260504183106 79 293 3.0 0.0 0.00 0.00 0.29 6
20260504182107 78 203 5.0 0.0 0.00 0.00 0.29 6
20260504181108 78 293 2.0 0.0 0.00 0.00 0.29 6
20260504180107 78 270 5.0 0.0 0.00 0.00 0.29 6
20260504175107 77 338 2.0 0.0 0.00 0.00 0.29 6
20260504174107 77 225 4.0 0.0 0.00 0.00 0.30 6
20260504173107 76 338 4.0 0.0 0.00 0.00 0.30 6
20260504172107 75 293 3.0 0.0 0.00 0.00 0.30 7
20260504171107 75 338 3.0 0.0 0.00 0.00 0.30 7
20260504170107 75 270 2.0 0.0 0.00 0.00 0.30 7
20260504160107 73 293 2.0 0.0 0.00 0.00 0.30 7